• In Germany
  • List of Countries
  • For 7 days
  • Water Temperature
  • Satellite Maps
  • Weather Map
  • Weather Widgets
  • user-avatar
    Login

    Hourly Weather Klerwo

    Today, 16 July, Monday

    Time Temperature Precipitation Wind Pressure Humidity
    00:00 +16°C° 0 mm 1 mps 727 mmHg 74%
    01:00 +16°C° 0 mm 1 mps 727 mmHg 76%
    02:00 +15°C° 0 mm 1 mps 726 mmHg 77%
    03:00 +14°C° 0 mm 0 mps 726 mmHg 79%
    04:00 +15°C° 0 mm 0 mps 726 mmHg 77%
    05:00 +16°C° 0 mm 0 mps 727 mmHg 75%
    06:00 +18°C° 0 mm 0 mps 727 mmHg 73%
    07:00 +20°C° 0 mm 0 mps 727 mmHg 66%
    08:00 +22°C° 0 mm 0 mps 727 mmHg 59%
    09:00 +26°C° 0 mm 1 mps 727 mmHg 52%
    10:00 +26°C° 0 mm 1 mps 727 mmHg 48%
    11:00 +27°C° 0 mm 1 mps 727 mmHg 44%
    12:00 +28°C° 0 mm 1 mps 727 mmHg 40%
    13:00 +28°C° 0 mm 1 mps 726 mmHg 41%
    14:00 +28°C° 0 mm 2 mps 726 mmHg 42%
    15:00 +28°C° 0 mm 2 mps 726 mmHg 43%
    16:00 +27°C° 0 mm 2 mps 726 mmHg 49%
    17:00 +26°C° 0 mm 1 mps 726 mmHg 56%
    18:00 +25°C° 0 mm 1 mps 726 mmHg 62%
    19:00 +23°C° 0 mm 1 mps 726 mmHg 63%
    20:00 +21°C° 0 mm 1 mps 726 mmHg 65%
    21:00 +19°C° 0 mm 1 mps 726 mmHg 67%
    22:00 +19°C° 0 mm 1 mps 726 mmHg 68%
    23:00 +18°C° 0 mm 1 mps 727 mmHg 69%

    Tomorrow, 17 July, Tuesday

    Time Temperature Precipitation Wind Pressure Humidity
    00:00 +18°C° 0 mm 1 mps 727 mmHg 69%
    01:00 +16°C° 0 mm 1 mps 727 mmHg 72%
    02:00 +16°C° 0 mm 1 mps 727 mmHg 74%
    03:00 +15°C° 0 mm 1 mps 727 mmHg 76%
    04:00 +16°C° 0 mm 1 mps 727 mmHg 76%
    05:00 +18°C° 0 mm 1 mps 727 mmHg 76%
    06:00 +19°C° 0 mm 1 mps 727 mmHg 76%
    07:00 +21°C° 0 mm 1 mps 727 mmHg 71%
    08:00 +21°C° 0 mm 2 mps 728 mmHg 66%
    09:00 +24°C° 0 mm 2 mps 728 mmHg 61%
    10:00 +24°C° 0.4 mm 2 mps 728 mmHg 63%
    11:00 +25°C° 0.4 mm 3 mps 728 mmHg 64%
    12:00 +25°C° 0.4 mm 3 mps 728 mmHg 66%
    13:00 +25°C° 0.9 mm 3 mps 728 mmHg 68%
    14:00 +24°C° 0.9 mm 3 mps 728 mmHg 71%
    15:00 +24°C° 0.9 mm 3 mps 727 mmHg 74%
    16:00 +22°C° 0.5 mm 3 mps 728 mmHg 77%
    17:00 +21°C° 0.5 mm 3 mps 728 mmHg 81%
    18:00 +20°C° 0.5 mm 2 mps 728 mmHg 85%
    19:00 +19°C° 0 mm 2 mps 728 mmHg 88%
    20:00 +17°C° 0 mm 2 mps 728 mmHg 91%
    21:00 +16°C° 0 mm 2 mps 728 mmHg 94%
    22:00 +15°C° 0 mm 1 mps 728 mmHg 94%
    23:00 +14°C° 0 mm 1 mps 728 mmHg 94%

    Day after tomorrow, 18 July, Wednesday

    Time Temperature Precipitation Wind Pressure Humidity
    00:00 +14°C° 0 mm 1 mps 728 mmHg 94%
    01:00 +13°C° 0 mm 1 mps 728 mmHg 94%
    02:00 +13°C° 0 mm 1 mps 729 mmHg 94%
    03:00 +12°C° 0 mm 1 mps 729 mmHg 94%
    04:00 +13°C° 0 mm 1 mps 729 mmHg 92%
    05:00 +14°C° 0 mm 1 mps 729 mmHg 91%
    06:00 +14°C° 0 mm 0 mps 729 mmHg 89%
    07:00 +18°C° 0 mm 1 mps 729 mmHg 80%
    08:00 +20°C° 0 mm 1 mps 730 mmHg 70%
    09:00 +22°C° 0 mm 1 mps 730 mmHg 61%
    10:00 +23°C° 0 mm 1 mps 730 mmHg 58%
    11:00 +24°C° 0 mm 1 mps 730 mmHg 54%
    12:00 +25°C° 0 mm 1 mps 730 mmHg 50%
    13:00 +25°C° 0 mm 1 mps 730 mmHg 50%
    14:00 +25°C° 0 mm 1 mps 730 mmHg 51%
    15:00 +25°C° 0 mm 1 mps 729 mmHg 51%
    16:00 +24°C° 0 mm 1 mps 729 mmHg 56%
    17:00 +23°C° 0 mm 1 mps 729 mmHg 61%
    18:00 +23°C° 0 mm 1 mps 729 mmHg 67%
    19:00 +21°C° 0 mm 1 mps 729 mmHg 69%
    20:00 +19°C° 0 mm 1 mps 729 mmHg 71%
    21:00 +18°C° 0 mm 1 mps 730 mmHg 73%
    22:00 +18°C° 0 mm 1 mps 729 mmHg 74%
    23:00 +16°C° 0 mm 1 mps 729 mmHg 74%

    19 July, Thursday

    Time Temperature Precipitation Wind Pressure Humidity
    00:00 +16°C° 0 mm 1 mps 729 mmHg 75%
    01:00 +16°C° 0 mm 1 mps 729 mmHg 76%
    02:00 +16°C° 0 mm 1 mps 729 mmHg 77%
    03:00 +15°C° 0 mm 1 mps 729 mmHg 78%
    04:00 +16°C° 0 mm 1 mps 729 mmHg 78%
    05:00 +17°C° 0 mm 2 mps 729 mmHg 78%
    06:00 +17°C° 0 mm 2 mps 729 mmHg 78%
    07:00 +19°C° 0 mm 2 mps 729 mmHg 72%
    08:00 +21°C° 0 mm 2 mps 729 mmHg 66%
    09:00 +22°C° 0 mm 3 mps 729 mmHg 60%
    10:00 +24°C° 0 mm 2 mps 729 mmHg 57%
    11:00 +24°C° 0 mm 2 mps 729 mmHg 55%
    12:00 +25°C° 0 mm 2 mps 729 mmHg 53%
    13:00 +25°C° 0 mm 2 mps 729 mmHg 54%
    14:00 +25°C° 0 mm 2 mps 728 mmHg 56%
    15:00 +25°C° 0 mm 2 mps 728 mmHg 57%
    16:00 +24°C° 0 mm 2 mps 728 mmHg 62%
    17:00 +23°C° 0 mm 2 mps 728 mmHg 66%
    18:00 +23°C° 0 mm 2 mps 728 mmHg 71%
    19:00 +20°C° 0 mm 2 mps 728 mmHg 73%
    20:00 +19°C° 0 mm 2 mps 728 mmHg 74%
    21:00 +17°C° 0 mm 2 mps 727 mmHg 76%
    22:00 +17°C° 0 mm 2 mps 727 mmHg 75%
    23:00 +17°C° 0 mm 2 mps 727 mmHg 73%

    20 July, Friday

    Time Temperature Precipitation Wind Pressure Humidity
    00:00 +17°C° 0 mm 2 mps 727 mmHg 72%
    01:00 +17°C° 0 mm 2 mps 727 mmHg 72%
    02:00 +16°C° 0 mm 2 mps 727 mmHg 72%
    03:00 +16°C° 0 mm 2 mps 726 mmHg 73%
    04:00 +16°C° 0 mm 2 mps 726 mmHg 72%
    05:00 +17°C° 0 mm 2 mps 726 mmHg 72%
    06:00 +18°C° 0 mm 2 mps 726 mmHg 72%
    07:00 +19°C° 0.2 mm 2 mps 726 mmHg 70%
    08:00 +21°C° 0.2 mm 2 mps 726 mmHg 67%
    09:00 +22°C° 0.2 mm 3 mps 726 mmHg 64%
    10:00 +24°C° 0.3 mm 2 mps 726 mmHg 63%
    11:00 +24°C° 0.3 mm 2 mps 726 mmHg 63%
    12:00 +25°C° 0.3 mm 2 mps 725 mmHg 62%
    13:00 +25°C° 0.7 mm 2 mps 725 mmHg 66%
    14:00 +24°C° 0.7 mm 1 mps 725 mmHg 70%
    15:00 +24°C° 0.7 mm 1 mps 725 mmHg 74%
    16:00 +22°C° 0.9 mm 1 mps 725 mmHg 79%
    17:00 +21°C° 0.9 mm 1 mps 724 mmHg 84%
    18:00 +20°C° 0.9 mm 1 mps 724 mmHg 89%
    19:00 +19°C° 0.5 mm 1 mps 724 mmHg 90%
    20:00 +18°C° 0.5 mm 2 mps 725 mmHg 91%
    21:00 +17°C° 0.5 mm 2 mps 725 mmHg 93%
    22:00 +17°C° 0.4 mm 2 mps 725 mmHg 93%
    23:00 +17°C° 0.4 mm 2 mps 725 mmHg 94%

    21 July, Saturday

    Time Temperature Precipitation Wind Pressure Humidity
    00:00 +16°C° 0.4 mm 2 mps 725 mmHg 95%
    01:00 +16°C° 0.6 mm 2 mps 725 mmHg 95%
    02:00 +16°C° 0.6 mm 2 mps 725 mmHg 96%
    03:00 +16°C° 0.6 mm 2 mps 725 mmHg 96%
    04:00 +16°C° 0.7 mm 2 mps 725 mmHg 96%
    05:00 +16°C° 0.7 mm 2 mps 725 mmHg 96%
    06:00 +15°C° 0.7 mm 2 mps 725 mmHg 96%
    07:00 +16°C° 0.6 mm 2 mps 725 mmHg 93%
    08:00 +17°C° 0.6 mm 2 mps 726 mmHg 90%
    09:00 +18°C° 0.6 mm 2 mps 726 mmHg 86%
    10:00 +19°C° 0.2 mm 3 mps 726 mmHg 79%
    11:00 +20°C° 0.2 mm 3 mps 726 mmHg 72%
    12:00 +21°C° 0.2 mm 4 mps 727 mmHg 65%
    13:00 +20°C° 0.3 mm 4 mps 727 mmHg 70%
    14:00 +20°C° 0.3 mm 4 mps 727 mmHg 74%
    15:00 +19°C° 0.3 mm 4 mps 727 mmHg 78%
    16:00 +18°C° 0.4 mm 4 mps 727 mmHg 83%
    17:00 +17°C° 0.4 mm 3 mps 727 mmHg 88%
    18:00 +16°C° 0.4 mm 3 mps 727 mmHg 93%
    19:00 +15°C° 0.1 mm 2 mps 728 mmHg 94%
    20:00 +15°C° 0.1 mm 2 mps 728 mmHg 96%
    21:00 +14°C° 0.1 mm 2 mps 728 mmHg 97%
    22:00 +14°C° 0.1 mm 2 mps 728 mmHg 97%
    23:00 +14°C° 0.1 mm 2 mps 728 mmHg 97%
    Show more